Date,TemperatureHighF,TemperatureAvgF,TemperatureLowF,DewpointHighF,DewpointAvgF,DewpointLowF,HumidityHigh,HumidityAvg,HumidityLow,PressureMaxIn,PressureMinIn,WindSpeedMaxMPH,WindSpeedAvgMPH,GustSpeedMaxMPH,PrecipitationSumIn
2013-1-1,28.0,14.8,4.0,7.0,2.2,-6.0,83,57,34,0.00,40.00,13,5,18,0.00
2013-1-2,28.0,12.2,4.0,10.0,4.0,-2.0,83,69,45,0.00,40.00,13,4,13,0.00
2013-1-3,29.0,16.3,8.0,8.0,1.8,-7.0,70,52,36,0.00,40.00,12,5,12,0.00
2013-1-4,36.0,16.3,9.0,8.0,1.9,-5.0,72,52,30,0.00,40.00,8,3,8,0.00
2013-1-5,28.0,14.4,3.0,9.0,4.4,-3.0,82,64,39,0.00,40.00,9,3,9,0.00
2013-1-6,20.0,16.3,10.0,10.0,6.0,0.0,75,63,46,0.00,40.00,10,5,11,0.00
2013-1-7,40.0,23.8,9.0,13.0,4.2,-5.0,62,43,25,0.00,40.00,12,4,13,0.00
2013-1-8,38.0,30.2,22.0,23.0,18.9,14.0,83,62,50,0.00,40.00,15,5,15,0.00
2013-1-9,37.0,26.2,18.0,23.0,18.8,11.0,94,73,53,0.00,40.00,14,5,14,0.00
2013-1-10,32.0,23.1,18.0,24.0,18.0,9.0,95,81,45,0.00,40.00,23,5,31,0.00
2013-1-11,26.0,15.8,6.0,11.0,-0.8,-7.0,67,47,33,0.00,40.00,28,14,36,0.00
2013-1-12,21.0,10.1,2.0,2.0,-4.2,-10.0,68,52,35,0.00,40.00,14,6,15,0.00
2013-1-13,14.0,5.4,-3.0,-2.0,-9.9,-16.0,60,48,33,0.00,40.00,11,5,12,0.00
2013-1-14,14.0,2.8,-6.0,-5.0,-12.5,-22.0,59,48,34,0.00,40.00,12,6,13,0.00
2013-1-15,19.0,7.1,-3.0,2.0,-5.4,-14.0,70,56,37,0.00,40.00,10,4,11,0.00
2013-1-16,27.0,14.7,1.0,10.0,4.2,-5.0,78,62,46,0.00,40.00,14,4,14,0.00
2013-1-17,33.0,22.9,14.0,16.0,9.6,4.0,71,56,39,0.00,40.00,9,4,9,0.00
2013-1-18,37.0,24.0,15.0,16.0,10.0,2.0,70,55,36,0.00,40.00,10,4,10,0.00
2013-1-19,36.0,23.8,15.0,18.0,10.6,3.0,72,56,43,0.00,40.00,11,4,11,0.00
2013-1-20,38.0,25.5,16.0,17.0,10.9,4.0,71,53,37,0.00,40.00,10,4,11,0.00
2013-1-21,41.0,28.9,18.0,21.0,9.8,1.0,62,45,27,0.00,40.00,8,3,8,0.00
2013-1-22,38.0,26.8,17.0,20.0,11.7,4.0,65,52,40,0.00,40.00,10,4,11,0.00
2013-1-23,40.0,28.0,20.0,17.0,12.2,8.0,65,51,32,0.00,40.00,6,2,6,0.00
2013-1-24,38.0,29.8,25.0,25.0,18.4,13.0,80,62,38,0.00,40.00,13,4,13,0.00
2013-1-25,36.0,31.0,27.0,28.0,25.6,19.0,92,80,65,0.00,40.00,8,4,9,0.00
2013-1-26,39.0,31.8,29.0,35.0,30.4,28.0,98,94,83,0.00,40.00,13,4,13,0.00
2013-1-27,36.0,31.7,29.0,33.0,30.1,24.0,99,94,68,0.00,40.00,16,7,19,0.00
2013-1-28,31.0,24.3,13.0,25.0,11.2,0.0,84,57,43,0.00,40.00,20,8,22,0.00
2013-1-29,30.0,21.8,12.0,13.0,6.7,-2.0,66,51,40,0.00,40.00,30,11,38,0.00
2013-1-30,43.0,29.9,16.0,23.0,17.0,7.0,76,59,41,0.00,40.00,30,9,38,0.00
2013-1-31,43.0,35.6,24.0,26.0,20.5,16.0,73,54,36,0.00,40.00,20,5,24,0.00
2013-2-1,38.0,30.1,22.0,26.0,18.3,9.0,79,61,34,0.00,40.00,11,4,11,0.00
2013-2-2,39.0,29.6,21.0,24.0,14.3,4.0,73,53,30,0.00,40.00,11,3,11,0.00
2013-2-3,37.0,30.3,26.0,24.0,19.8,16.0,76,64,51,0.00,40.00,9,2,9,0.00
2013-2-4,40.0,30.1,22.0,26.0,19.6,12.0,80,65,36,0.00,40.00,11,4,11,0.00
2013-2-5,41.0,31.2,22.0,25.0,19.6,13.0,80,62,45,0.00,40.00,11,5,13,0.00
2013-2-6,43.0,33.3,24.0,26.0,19.7,4.0,80,58,34,0.00,40.00,13,4,15,0.00
2013-2-7,39.0,30.2,19.0,22.0,11.0,-4.0,72,45,26,0.00,40.00,10,5,14,0.00
2013-2-8,35.0,27.1,15.0,33.0,22.5,12.0,97,83,67,0.00,40.00,15,5,16,0.00
2013-2-9,35.0,24.3,14.0,17.0,10.6,4.0,74,56,39,0.00,40.00,21,8,30,0.00
2013-2-10,31.0,23.1,14.0,15.0,9.4,4.0,78,56,37,0.00,40.00,12,5,14,0.00
2013-2-11,30.0,21.2,15.0,19.0,6.2,-6.0,78,52,32,0.00,40.00,13,5,13,0.00
2013-2-12,29.0,20.7,9.0,14.0,6.0,-8.0,77,52,32,0.00,40.00,11,5,12,0.00
2013-2-13,39.0,27.9,15.0,23.0,15.8,9.0,80,60,40,0.00,40.00,18,5,27,0.00
2013-2-14,41.0,33.7,24.0,19.0,13.8,5.0,66,44,24,0.00,40.00,25,9,31,0.00
2013-2-15,42.0,31.2,20.0,25.0,15.0,8.0,74,51,31,0.00,40.00,14,5,14,0.00
2013-2-16,39.0,31.2,21.0,24.0,17.2,10.0,71,56,40,0.00,40.00,10,5,10,0.00
2013-2-17,43.0,31.6,24.0,25.0,15.5,-6.0,73,52,22,0.00,40.00,29,8,40,0.00
2013-2-18,37.0,26.0,15.0,16.0,4.6,-6.0,63,41,18,0.00,40.00,16,6,20,0.00
2013-2-19,37.0,28.0,20.0,17.0,11.0,4.0,71,49,29,0.00,40.00,10,5,11,0.00
2013-2-20,38.0,31.5,25.0,26.0,16.3,11.0,77,53,34,0.00,40.00,19,6,19,0.00
2013-2-21,36.0,29.4,23.0,18.0,12.6,3.0,64,49,34,0.00,40.00,19,11,24,0.00
2013-2-22,31.0,24.9,19.0,13.0,7.2,0.0,64,46,31,0.00,40.00,23,11,31,0.00
2013-2-23,29.0,23.4,20.0,22.0,10.3,0.0,91,57,39,0.00,40.00,21,8,47,0.00
2013-2-24,32.0,25.1,19.0,11.0,4.5,-2.0,53,40,30,0.00,40.00,33,20,47,0.00
2013-2-25,37.0,25.9,14.0,21.0,5.7,-3.0,78,43,22,0.00,40.00,13,5,17,0.00
2013-2-26,29.0,24.7,19.0,16.0,3.9,-6.0,61,40,26,0.00,40.00,25,12,35,0.00
2013-2-27,37.0,23.6,10.0,7.0,-1.7,-9.0,53,33,20,0.00,40.00,14,6,14,0.00
2013-2-28,42.0,30.5,17.0,18.0,7.7,-2.0,55,38,21,0.00,40.00,21,6,27,0.00
2013-3-1,53.0,40.8,31.0,26.0,20.6,15.0,60,45,29,0.00,40.00,16,8,22,0.00
2013-3-2,53.0,41.5,31.0,26.0,20.2,15.0,61,43,27,0.00,40.00,11,5,11,0.00
2013-3-3,53.0,41.5,31.0,31.0,25.4,21.0,78,53,27,0.00,40.00,22,7,28,0.00
2013-3-4,44.0,36.9,27.0,31.0,17.1,1.0,79,46,27,0.00,40.00,35,12,40,0.00
2013-3-5,44.0,32.2,20.0,11.0,4.7,-3.0,60,31,20,0.00,40.00,11,6,16,0.00
2013-3-6,53.0,39.9,25.0,18.0,12.7,7.0,59,33,22,0.00,40.00,27,8,30,0.00
2013-3-7,55.0,44.9,34.0,15.0,13.0,6.0,43,28,15,0.00,40.00,24,11,27,0.00
2013-3-8,44.0,36.6,32.0,34.0,26.7,12.0,99,73,28,0.00,40.00,19,9,22,0.00
2013-3-9,37.0,32.1,28.0,35.0,29.3,14.0,99,90,44,0.00,40.00,13,7,15,0.00
2013-3-10,46.0,31.9,20.0,28.0,18.1,12.0,76,57,30,0.00,40.00,13,5,14,0.00
2013-3-11,51.0,38.2,29.0,27.0,19.8,10.0,68,48,29,0.00,40.00,21,8,23,0.00
2013-3-12,55.0,43.3,34.0,33.0,27.3,24.0,69,53,34,0.00,40.00,16,8,18,0.00
2013-3-13,60.0,47.1,34.0,34.0,27.2,22.0,74,47,22,0.00,40.00,13,6,14,0.00
2013-3-14,63.0,50.6,40.0,36.0,28.2,19.0,61,42,23,0.00,40.00,12,6,14,0.00
2013-3-15,66.0,55.7,45.0,37.0,28.9,15.0,64,37,13,0.00,40.00,15,8,28,0.00
2013-3-16,57.0,50.7,40.0,30.0,23.0,13.0,57,34,23,0.00,40.00,23,10,29,0.00
2013-3-17,49.0,44.0,37.0,28.0,17.9,10.0,61,35,22,0.00,40.00,33,16,40,0.00
2013-3-18,49.0,41.3,36.0,12.0,8.6,5.0,35,26,17,0.00,40.00,34,18,43,0.00
2013-3-19,54.0,41.6,33.0,18.0,11.5,4.0,52,30,14,0.00,40.00,11,5,17,0.00
2013-3-20,54.0,43.5,34.0,33.0,17.6,12.0,66,35,25,0.00,40.00,21,6,27,0.00
2013-3-21,45.0,39.7,31.0,36.0,14.0,-13.0,91,42,8,0.00,40.00,46,14,55,0.00
2013-3-22,41.0,31.7,23.0,14.0,6.3,-2.0,55,35,16,0.00,40.00,28,13,36,0.00
2013-3-23,33.0,24.6,18.0,7.0,-2.4,-17.0,50,31,11,0.00,40.00,34,12,41,0.00
2013-3-24,38.0,27.7,18.0,8.0,5.2,2.0,59,39,23,0.00,40.00,18,7,27,0.00
2013-3-25,43.0,31.7,20.0,10.0,6.4,2.0,59,35,22,0.00,40.00,16,6,17,0.00
2013-3-26,54.0,40.3,27.0,24.0,11.8,8.0,49,32,17,0.00,40.00,14,5,17,0.00
2013-3-27,59.0,47.7,33.0,22.0,16.9,11.0,52,31,15,0.00,40.00,18,6,22,0.00
2013-3-28,61.0,52.0,42.0,27.0,19.7,17.0,41,28,19,0.00,40.00,16,8,19,0.00
2013-3-29,65.0,53.2,44.0,30.0,23.9,19.0,51,33,17,0.00,40.00,16,8,21,0.00
2013-3-30,63.0,51.4,40.0,32.0,24.8,-99.9,57,37,19,0.00,40.00,26,9,30,0.00
2013-3-31,64.0,50.5,38.0,36.0,20.6,13.0,70,32,14,0.00,40.00,26,9,29,0.00
2013-4-1,55.0,46.5,40.0,33.0,27.6,19.0,72,49,26,0.00,40.00,30,10,33,0.00
2013-4-2,49.0,42.7,37.0,36.0,30.1,25.0,81,61,44,0.00,40.00,24,6,31,0.00
2013-4-3,62.0,50.1,36.0,31.0,23.7,16.0,72,39,17,0.00,40.00,18,7,25,0.00
2013-4-4,63.0,52.9,39.0,25.0,19.4,16.0,47,27,18,0.00,40.00,22,8,28,0.00
2013-4-5,62.0,52.9,43.0,35.0,25.8,17.0,63,35,20,0.00,40.00,26,11,34,0.00
2013-4-6,60.0,50.3,41.0,26.0,22.6,16.0,50,34,19,0.00,40.00,28,10,34,0.00
2013-4-7,62.0,50.2,37.0,25.0,17.4,6.0,55,30,12,0.00,40.00,27,10,34,0.00
2013-4-8,55.0,43.9,32.0,34.0,21.4,10.0,98,47,20,0.00,40.00,35,10,43,0.00
2013-4-9,37.0,31.1,23.0,32.0,24.4,14.0,98,76,44,0.00,40.00,24,10,26,0.00
2013-4-10,46.0,32.2,17.0,26.0,18.0,10.0,82,57,38,0.00,40.00,26,10,33,0.00
2013-4-11,53.0,43.4,33.0,32.0,25.7,20.0,78,51,27,0.00,40.00,20,10,24,0.00
2013-4-12,59.0,47.5,36.0,22.0,14.5,7.0,53,28,12,0.00,40.00,16,7,19,0.00
2013-4-13,63.0,49.3,37.0,38.0,22.4,13.0,86,38,16,0.00,40.00,40,17,52,0.00
2013-4-14,53.0,42.5,33.0,36.0,13.5,0.0,78,34,12,0.00,40.00,31,13,44,0.00
2013-4-15,51.0,41.3,32.0,36.0,26.1,11.0,98,60,25,0.00,40.00,24,12,32,0.00
2013-4-16,42.0,34.3,28.0,33.0,28.5,17.0,98,81,42,0.00,40.00,17,7,24,0.00
2013-4-17,39.0,31.5,26.0,28.0,16.1,5.0,87,55,26,0.00,40.00,28,13,36,0.00
2013-4-18,44.0,33.2,25.0,15.0,6.9,-7.0,60,34,14,0.00,40.00,28,11,34,0.00
2013-4-19,54.0,40.2,26.0,26.0,16.9,11.0,66,40,24,0.00,40.00,19,7,23,0.00
2013-4-20,53.0,44.4,35.0,31.0,24.5,18.0,74,46,31,0.00,40.00,26,10,31,0.00
2013-4-21,61.0,48.8,34.0,26.0,18.8,11.0,58,32,13,0.00,40.00,28,9,32,0.00
2013-4-22,61.0,51.9,40.0,24.0,18.6,10.0,39,27,14,0.00,40.00,29,17,43,0.00
2013-4-23,50.0,40.0,30.0,17.0,4.6,-8.0,46,24,9,0.00,40.00,22,11,27,0.00
2013-4-24,56.0,45.0,33.0,10.0,5.3,1.0,35,19,13,0.00,40.00,14,6,18,0.00
2013-4-25,63.0,49.7,38.0,12.0,7.1,4.0,29,18,11,0.00,40.00,26,9,33,0.00
2013-4-26,65.0,53.8,37.0,12.0,7.8,-3.0,23,15,11,0.00,40.00,20,10,34,0.00
2013-4-27,69.0,57.3,41.0,19.0,13.0,7.0,28,17,11,0.00,40.00,19,8,23,0.00
2013-4-28,74.0,61.5,47.0,21.0,16.8,13.0,28,18,10,0.00,40.00,22,9,28,0.00
2013-4-29,75.0,62.4,47.0,25.0,20.1,15.0,35,21,10,0.00,40.00,27,11,32,0.00
2013-4-30,69.0,58.9,47.0,27.0,22.6,4.0,39,25,14,0.00,40.00,35,16,43,0.00
2013-5-1,48.0,41.6,33.0,8.0,0.0,-11.0,23,17,8,0.00,40.00,29,14,34,0.00
2013-5-2,54.0,41.8,31.0,11.0,3.3,-2.0,37,21,10,0.00,40.00,18,9,22,0.00
2013-5-3,64.0,50.0,35.0,6.0,3.0,0.0,25,15,8,0.00,40.00,15,7,18,0.00
2013-5-4,65.0,55.2,43.0,23.0,9.4,1.0,29,16,8,0.00,40.00,24,8,31,0.00
2013-5-5,69.0,57.8,46.0,25.0,16.1,8.0,31,20,9,0.00,40.00,30,12,33,0.00
2013-5-6,57.0,50.3,44.0,41.0,31.7,23.0,85,51,30,0.00,40.00,31,9,34,0.00
2013-5-7,57.0,44.7,38.0,42.0,38.1,33.0,96,78,44,0.00,40.00,26,7,30,0.00
2013-5-8,53.0,44.7,36.0,43.0,38.3,34.0,95,79,53,0.00,40.00,21,10,26,0.00
2013-5-9,62.0,51.2,43.0,43.0,38.8,28.0,96,66,28,0.00,40.00,22,9,25,0.00
2013-5-10,68.0,54.6,43.0,41.0,31.6,-99.9,76,46,22,0.00,40.00,19,7,22,0.00
2013-5-11,71.0,59.9,49.0,38.0,27.3,-99.9,52,31,14,0.00,40.00,14,5,25,0.00
2013-5-12,77.0,65.0,48.0,36.0,27.9,23.0,53,26,14,0.00,40.00,15,7,20,0.00
2013-5-13,80.0,68.2,54.0,35.0,28.1,23.0,41,23,12,0.00,40.00,16,8,20,0.00
2013-5-14,83.0,68.4,58.0,37.0,28.3,21.0,37,23,10,0.00,40.00,28,8,43,0.00
2013-5-15,78.0,68.3,59.0,32.0,23.8,11.0,33,19,8,0.00,40.00,33,10,41,0.00
2013-5-16,74.0,61.7,54.0,33.0,10.0,-99.9,38,21,11,0.00,40.00,23,9,32,0.00
2013-5-17,67.0,60.2,49.0,33.0,20.2,-99.9,50,24,13,0.00,40.00,28,13,34,0.00
2013-5-18,62.0,54.1,45.0,36.0,28.2,19.0,66,38,19,0.00,40.00,26,13,33,0.00
2013-5-19,58.0,50.5,40.0,33.0,27.0,21.0,61,40,24,0.00,40.00,27,12,32,0.00
2013-5-20,62.0,52.5,41.0,33.0,28.7,24.0,59,40,28,0.00,40.00,24,10,27,0.00
2013-5-21,66.0,53.1,42.0,34.0,26.8,13.0,61,38,14,0.00,40.00,20,7,24,0.00
2013-5-22,68.0,55.5,42.0,25.0,16.9,10.0,38,23,11,0.00,40.00,28,13,36,0.00
2013-5-23,67.0,54.6,42.0,20.0,11.3,4.0,34,18,9,0.00,40.00,31,14,42,0.00
2013-5-24,66.0,52.3,34.0,18.0,13.1,8.0,45,22,10,0.00,40.00,19,9,29,0.00
2013-5-25,68.0,55.1,42.0,21.0,14.6,8.0,34,21,10,0.00,40.00,25,11,34,0.00
2013-5-26,68.0,55.1,41.0,19.0,13.2,9.0,32,19,11,0.00,40.00,22,10,30,0.00
2013-6-10,77.0,69.1,61.0,13.0,8.7,5.0,14,9,7,0.00,40.00,21,14,28,0.00
2013-6-11,75.0,62.3,50.0,24.0,18.2,11.0,27,18,11,0.00,40.00,26,13,35,0.00
2013-6-12,79.0,65.6,53.0,26.0,19.9,16.0,30,18,10,0.00,40.00,27,13,36,0.00
2013-6-13,77.0,66.7,55.0,31.0,16.8,-1.0,37,17,4,0.00,40.00,34,18,49,0.00
2013-6-14,75.0,59.7,44.0,23.0,17.2,5.0,39,20,9,0.00,40.00,20,10,25,0.00
2013-6-15,75.0,61.3,46.0,23.0,19.0,10.0,34,20,11,0.00,40.00,28,11,37,0.00
2013-6-16,75.0,63.3,48.0,25.0,16.9,7.0,32,18,8,0.00,40.00,22,10,32,0.00
2013-6-17,77.0,63.0,45.0,15.0,9.1,4.0,25,12,6,0.00,40.00,18,8,25,0.00
2013-6-18,77.0,63.8,47.0,13.0,6.5,2.0,17,10,6,0.00,40.00,24,9,34,0.00
2013-6-24,60.0,57.9,54.0,30.0,29.1,28.0,38,33,29,0.00,40.00,21,12,32,0.00
2013-6-25,76.0,60.6,45.0,32.0,30.7,29.0,56,34,18,0.00,40.00,22,7,25,0.00
2013-6-26,83.0,68.0,51.0,37.0,33.1,26.0,50,29,13,0.00,40.00,17,7,23,0.00
2013-6-27,83.0,70.6,58.0,36.0,32.2,27.0,40,26,13,0.00,40.00,14,6,21,0.00
2013-6-28,86.0,72.5,59.0,36.0,30.6,25.0,43,22,11,0.00,40.00,17,6,22,0.00
2013-6-29,86.0,74.0,60.0,34.0,29.9,22.0,32,20,12,0.00,40.00,20,7,29,0.00
2013-6-30,85.0,72.3,55.0,37.0,31.3,24.0,43,23,11,0.00,40.00,25,8,40,0.00
2013-7-1,87.0,73.3,55.0,36.0,30.3,21.0,46,22,9,0.00,40.00,20,8,24,0.00
2013-7-2,85.0,73.2,57.0,35.0,29.6,20.0,39,21,11,0.00,40.00,19,9,31,0.00
2013-7-3,85.0,73.0,57.0,36.0,31.6,26.0,40,23,12,0.00,40.00,19,9,28,0.00
2013-7-4,81.0,68.6,59.0,51.0,40.8,33.0,67,38,18,0.00,40.00,20,8,27,0.00
2013-7-5,83.0,66.1,53.0,51.0,44.3,30.0,85,51,15,0.00,40.00,30,10,37,0.00
2013-7-6,76.0,60.3,52.0,52.0,46.0,37.0,77,61,25,0.00,40.00,17,6,20,0.00
2013-7-7,73.0,60.7,52.0,52.0,44.7,39.0,88,58,28,0.00,40.00,23,8,28,0.00
2013-7-8,78.0,62.0,47.0,47.0,36.4,-99.9,89,46,15,0.00,40.00,23,8,37,0.00
2013-7-9,83.0,69.7,53.0,38.0,24.2,16.0,50,21,8,0.00,40.00,20,7,24,0.00
2013-7-10,85.0,70.6,54.0,27.0,20.2,-99.9,27,16,10,0.00,40.00,16,5,23,0.00
2013-7-11,74.0,64.1,53.0,53.0,39.2,27.0,94,47,20,0.00,40.00,21,6,28,0.00
2013-7-12,69.0,59.6,52.0,54.0,50.7,46.0,89,74,45,0.00,40.00,17,7,22,0.00
2013-7-13,78.0,64.0,52.0,50.0,44.1,38.0,83,51,26,0.00,40.00,16,8,22,0.00
2013-7-14,72.0,61.9,53.0,55.0,45.6,40.0,83,56,32,0.00,40.00,19,8,25,0.00
2013-7-15,75.0,62.2,53.0,54.0,47.0,40.0,82,59,29,0.00,40.00,16,6,22,0.00
2013-7-16,72.0,61.6,53.0,54.0,50.1,47.0,89,67,43,0.00,40.00,19,6,23,0.00
2013-7-17,76.0,61.6,54.0,56.0,48.7,45.0,84,63,33,0.00,40.00,12,5,15,0.00
2013-7-18,77.0,63.3,54.0,57.0,49.6,42.0,87,63,29,0.00,40.00,16,7,20,0.00
2013-7-19,75.0,62.4,53.0,51.0,46.3,39.0,83,58,29,0.00,40.00,21,6,24,0.00
2013-7-20,83.0,67.4,54.0,44.0,32.9,-99.9,64,33,10,0.00,40.00,17,6,22,0.00
2013-7-21,82.0,69.0,57.0,41.0,35.4,23.0,55,31,11,0.00,40.00,21,7,25,0.00
2013-7-22,80.0,67.1,52.0,47.0,37.7,25.0,76,37,14,0.00,40.00,21,7,31,0.00
2013-7-23,80.0,66.8,55.0,43.0,38.1,32.0,58,36,19,0.00,40.00,16,8,21,0.00
2013-7-24,78.0,62.0,53.0,55.0,47.3,39.0,92,61,25,0.00,40.00,17,7,23,0.00
2013-7-25,81.0,66.0,50.0,48.0,39.4,28.0,80,44,15,0.00,40.00,15,7,23,0.00
2013-7-26,79.0,66.7,56.0,42.0,36.9,33.0,47,34,18,0.00,40.00,25,6,37,0.00
2013-7-27,70.0,61.3,54.0,53.0,46.4,41.0,95,60,38,0.00,40.00,21,7,23,0.00
2013-7-28,68.0,57.4,50.0,54.0,48.7,40.0,98,76,39,0.00,40.00,15,7,21,0.00
2013-7-29,67.0,55.1,46.0,50.0,44.9,36.0,95,71,38,0.00,40.00,16,7,23,0.00
2013-7-30,75.0,62.4,48.0,42.0,37.8,31.0,76,44,19,0.00,40.00,17,6,21,0.00
2013-7-31,79.0,66.9,52.0,41.0,36.1,28.0,62,34,17,0.00,40.00,21,7,31,0.00
2013-8-1,75.0,64.6,54.0,53.0,45.6,36.0,90,52,32,0.00,40.00,21,10,26,0.00
2013-8-2,78.0,64.4,52.0,51.0,40.5,28.0,92,48,19,0.00,40.00,22,8,27,0.00
2013-8-3,77.0,64.5,50.0,44.0,36.5,31.0,60,37,19,0.00,40.00,16,7,23,0.00
2013-8-4,76.0,62.2,53.0,52.0,39.3,30.0,78,45,19,0.00,40.00,16,6,23,0.00
2013-8-5,77.0,64.0,49.0,44.0,38.2,29.0,76,42,18,0.00,40.00,16,6,27,0.00
2013-8-6,74.0,64.7,54.0,37.0,30.4,26.0,51,28,17,0.00,40.00,15,5,21,0.00
2013-8-7,70.0,60.9,54.0,44.0,36.7,29.0,69,41,24,0.00,40.00,16,7,19,0.00
2013-8-8,72.0,57.9,46.0,46.0,38.6,25.0,88,53,17,0.00,40.00,18,7,22,0.00
2013-8-9,75.0,59.6,45.0,44.0,31.9,16.0,71,39,13,0.00,40.00,22,9,27,0.00
2013-8-10,68.0,57.7,46.0,43.0,35.0,24.0,65,43,27,0.00,40.00,20,10,22,0.00
2013-8-11,71.0,58.6,46.0,43.0,35.9,26.0,76,45,19,0.00,40.00,20,8,24,0.00
2013-8-12,70.0,59.4,52.0,39.0,35.0,27.0,56,41,21,0.00,40.00,26,7,34,0.00
2013-8-13,72.0,58.7,47.0,38.0,31.5,-99.9,69,41,16,0.00,40.00,21,9,26,0.00
2013-8-14,79.0,62.1,49.0,35.0,23.4,-99.9,54,30,7,0.00,40.00,17,7,25,0.00
2013-8-15,80.0,54.8,52.0,25.0,1.1,-99.9,27,15,8,0.00,40.00,18,8,22,0.00
2013-8-16,80.0,64.4,55.0,45.0,29.9,-99.9,48,31,19,0.00,40.00,19,6,30,0.00
2013-8-17,75.0,61.5,53.0,51.0,39.9,-99.9,91,49,23,0.00,40.00,23,7,31,0.00
2013-8-18,76.0,63.0,51.0,46.0,42.0,37.0,75,49,26,0.00,40.00,15,5,19,0.00
2013-8-19,76.0,56.0,54.0,53.0,29.2,-99.9,74,51,24,0.00,40.00,13,6,20,0.00
2013-8-20,74.0,60.7,54.0,50.0,40.8,-99.9,83,53,29,0.00,40.00,14,5,20,0.00
2013-8-21,75.0,61.9,50.0,47.0,41.7,35.0,82,51,25,0.00,40.00,17,8,21,0.00
2013-8-22,70.0,61.7,56.0,45.0,42.6,40.0,59,50,36,0.00,40.00,15,6,21,0.00
2013-8-23,61.0,55.0,49.0,53.0,47.2,42.0,94,75,58,0.00,40.00,15,7,20,0.00
2013-8-24,66.0,54.1,46.0,49.0,41.6,-99.9,95,68,39,0.00,40.00,12,6,16,0.00
2013-8-25,60.0,51.4,44.0,52.0,47.9,43.0,97,88,69,0.00,40.00,14,9,17,0.00
2013-8-26,61.0,52.2,48.0,56.0,50.6,47.0,97,94,81,0.00,40.00,17,9,18,0.00
2013-8-27,57.0,53.4,51.0,54.0,51.9,50.0,97,94,78,0.00,40.00,14,7,16,0.00
2013-8-28,67.0,62.5,57.0,54.0,48.3,44.0,81,60,43,0.00,40.00,17,5,18,0.00
2013-8-29,77.0,64.5,50.0,49.0,43.3,32.0,84,51,20,0.00,40.00,11,7,18,0.00
2013-8-30,75.0,63.2,54.0,53.0,47.1,42.0,73,57,32,0.00,40.00,16,5,20,0.00
2013-8-31,71.0,59.9,56.0,55.0,47.3,-99.9,92,67,46,0.00,40.00,11,5,19,0.00
2013-9-1,63.0,57.2,53.0,57.0,54.5,52.0,96,90,73,0.00,40.00,13,6,14,0.00
2013-9-2,71.0,60.0,53.0,53.0,50.0,43.0,96,72,42,0.00,40.00,16,6,20,0.00
2013-9-3,73.0,61.8,50.0,49.0,45.5,38.0,84,57,28,0.00,40.00,20,7,26,0.00
2013-9-4,73.0,59.9,55.0,55.0,48.3,44.0,82,66,36,0.00,40.00,11,5,16,0.00
2013-9-5,74.0,61.5,51.0,52.0,47.9,41.0,91,64,32,0.00,40.00,14,8,18,0.00
2013-9-6,71.0,62.2,51.0,49.0,44.9,41.0,76,54,33,0.00,40.00,17,6,21,0.00
2013-9-7,73.0,58.9,51.0,52.0,43.2,-99.9,82,60,30,0.00,40.00,17,9,20,0.00
2013-9-8,57.0,53.0,51.0,53.0,50.7,50.0,97,92,78,0.00,40.00,11,5,16,0.00
2013-9-9,62.0,53.5,50.0,53.0,49.0,40.0,97,85,48,0.00,40.00,13,6,18,0.00
2013-9-10,57.0,51.9,48.0,52.0,48.7,45.0,96,88,72,0.00,40.00,19,8,22,0.00
2013-9-11,56.0,49.4,44.0,52.0,47.2,43.0,98,92,80,0.00,40.00,18,10,21,0.00
2013-9-12,61.0,51.8,44.0,50.0,45.8,43.0,97,81,50,0.00,40.00,15,8,21,0.00
2013-9-13,62.0,52.8,42.0,48.0,44.7,41.0,95,75,48,0.00,40.00,16,7,20,0.00
2013-9-14,60.0,50.3,45.0,51.0,43.9,-99.9,97,83,57,0.00,40.00,18,5,20,0.00
2013-9-15,63.0,49.6,41.0,50.0,45.2,39.0,96,85,49,0.00,40.00,11,6,15,0.00
2013-9-16,67.0,56.5,44.0,48.0,44.7,35.0,96,68,31,0.00,40.00,16,6,22,0.00
2013-9-17,69.0,58.5,46.0,47.0,41.7,35.0,88,57,30,0.00,40.00,26,13,31,0.00
2013-9-18,56.0,51.6,46.0,40.0,38.2,34.0,66,59,54,0.00,40.00,18,8,22,0.00
2013-9-19,62.0,49.1,36.0,35.0,28.4,22.0,75,48,22,0.00,40.00,15,9,20,0.00
2013-9-20,69.0,53.5,36.0,32.0,28.2,23.0,72,41,18,0.00,40.00,18,9,23,0.00
2013-9-21,66.0,54.4,43.0,42.0,30.1,-99.9,55,41,33,0.00,40.00,21,10,27,0.00
2013-9-22,55.0,48.0,39.0,42.0,34.2,25.0,90,60,37,0.00,40.00,23,13,32,0.00
2013-9-23,60.0,46.6,35.0,33.0,29.2,23.0,82,54,25,0.00,40.00,11,6,18,0.00
2013-9-25,62.0,52.2,45.0,27.0,24.0,21.0,45,33,22,0.00,40.00,30,18,37,0.00
2013-9-26,55.0,43.8,29.0,31.0,24.6,14.0,92,52,21,0.00,40.00,25,10,33,0.00
2013-9-27,40.0,34.3,28.0,20.0,16.7,12.0,62,49,35,0.00,40.00,10,3,20,0.00
2013-9-28,51.0,37.0,28.0,16.0,7.0,-99.9,57,34,15,0.00,40.00,6,3,9,0.00
2013-9-29,58.0,48.3,40.0,21.0,13.0,5.0,30,24,19,0.00,40.00,7,4,13,0.00
2013-9-30,59.0,51.0,45.0,21.0,13.0,6.0,29,21,18,0.00,40.00,8,4,11,0.00
2013-10-2,52.0,45.0,42.0,26.0,21.0,20.0,43,38,32,0.00,40.00,4,2,10,0.00
2013-10-3,47.0,36.0,23.0,34.0,26.0,6.0,82,67,47,0.00,40.00,28,10,36,0.00
2013-10-4,33.0,25.0,19.0,16.0,12.1,7.0,76,58,41,0.00,40.00,30,9,41,0.00
2013-10-5,50.0,41.9,21.0,19.0,13.2,4.0,59,32,19,0.00,40.00,6,3,11,0.00
2013-10-6,63.0,55.7,47.0,19.0,16.3,12.0,26,21,17,0.00,40.00,4,3,9,0.00
2013-10-7,55.0,50.0,44.0,20.0,12.5,4.0,26,22,12,0.00,40.00,7,4,13,0.00
2013-10-8,51.0,41.6,36.0,17.0,14.6,10.0,44,33,21,0.00,40.00,8,5,18,0.00
2013-10-9,39.0,34.4,27.0,28.0,22.6,12.0,98,64,35,0.00,40.00,17,10,35,0.00
2013-10-10,32.0,27.4,24.0,31.0,26.7,23.0,98,97,95,0.00,40.00,11,4,18,0.00
2013-10-11,41.0,32.1,27.0,32.0,27.4,19.0,98,84,54,0.00,40.00,9,4,23,0.00
2013-10-12,46.0,34.4,30.0,28.0,22.9,-99.9,84,67,49,0.00,40.00,12,6,16,0.00
2013-10-13,35.0,31.9,27.0,30.0,26.6,22.0,96,80,66,0.00,40.00,16,6,24,0.00
2013-10-14,41.0,30.5,25.0,26.0,22.1,13.0,95,71,51,0.00,40.00,25,9,34,0.00
2013-10-15,37.0,28.8,23.0,23.0,17.3,12.0,82,62,43,0.00,40.00,17,6,23,0.00
2013-10-16,46.0,32.9,20.0,15.0,5.6,-9.0,75,34,16,0.00,40.00,11,3,16,0.00
2013-10-17,48.0,38.2,33.0,14.0,6.3,-4.0,42,26,14,0.00,40.00,18,8,21,0.00
2013-10-18,49.0,39.0,29.0,17.0,9.9,1.0,53,31,16,0.00,40.00,18,4,28,0.00
2013-10-19,54.0,40.2,32.0,10.0,0.7,-99.9,29,19,13,0.00,40.00,17,4,24,0.00
2013-10-20,54.0,42.8,36.0,11.0,4.6,-4.0,35,20,14,0.00,40.00,20,8,25,0.00
2013-10-21,54.0,42.0,31.0,20.0,14.2,8.0,54,33,20,0.00,40.00,7,3,13,0.00
2013-10-22,55.0,43.9,35.0,16.0,12.8,9.0,43,28,19,0.00,40.00,6,3,12,0.00
2013-10-23,55.0,43.8,37.0,16.0,10.6,0.0,33,25,18,0.00,40.00,15,5,19,0.00
2013-10-24,54.0,44.8,39.0,26.0,16.3,7.0,59,32,21,0.00,40.00,13,6,18,0.00
2013-10-25,52.0,41.4,35.0,30.0,24.0,17.0,81,50,32,0.00,40.00,10,4,15,0.00
2013-10-27,38.0,38.0,38.0,19.0,19.0,19.0,45,45,45,0.00,40.00,8,8,15,0.00
2013-10-30,28.0,22.2,19.0,27.0,20.8,17.0,95,94,88,0.00,40.00,10,4,17,0.00
2013-10-31,41.0,30.8,22.0,26.0,17.6,5.0,93,58,32,0.00,40.00,26,15,36,0.00
2013-11-1,52.0,39.9,32.0,26.0,17.7,-2.0,61,42,16,0.00,40.00,27,11,35,0.00
2013-11-2,50.0,41.7,37.0,16.0,0.0,-99.9,37,20,11,0.00,40.00,4,3,10,0.00
2013-11-3,41.0,33.2,28.0,22.0,16.8,15.0,64,51,39,0.00,40.00,14,4,20,0.00
2013-11-4,30.0,25.4,18.0,24.0,18.0,9.0,96,74,57,0.00,40.00,19,4,25,0.00
2013-11-5,34.0,23.1,12.0,5.0,-3.6,-17.0,55,32,11,0.00,40.00,20,5,29,0.00
2013-11-6,45.0,31.2,28.0,21.0,4.5,-3.0,57,32,23,0.00,40.00,13,10,16,0.00
2013-11-7,50.0,42.4,34.0,16.0,12.4,5.0,37,29,22,0.00,40.00,5,2,7,0.00
2013-11-8,50.0,39.5,35.0,13.0,10.6,7.0,33,29,22,0.00,40.00,9,5,13,0.00
2013-11-9,50.0,36.3,35.0,12.0,-3.2,-99.9,32,22,14,0.00,40.00,4,2,7,0.00
2013-11-10,53.0,44.4,37.0,15.0,8.1,-4.0,32,22,13,0.00,40.00,5,3,11,0.00
2013-11-11,54.0,43.9,37.0,16.0,9.6,2.0,32,24,14,0.00,40.00,7,3,13,0.00
2013-11-12,51.0,43.2,40.0,12.0,7.9,2.0,28,22,18,0.00,40.00,16,8,19,0.00
2013-11-13,53.0,44.2,34.0,18.0,11.7,4.0,37,26,20,0.00,40.00,16,7,18,0.00
2013-11-16,30.0,24.3,26.0,25.0,5.6,-99.9,97,60,56,0.00,40.00,10,7,21,0.00
2013-11-17,43.0,29.3,24.0,26.0,20.9,10.0,95,74,33,0.00,40.00,12,6,22,0.00
2013-11-18,46.0,37.0,31.0,26.0,15.9,5.0,67,42,29,0.00,40.00,4,3,9,0.00
2013-11-19,38.0,32.0,28.0,31.0,27.0,21.0,95,82,50,0.00,40.00,12,4,20,0.00
2013-11-20,32.0,28.9,28.0,29.0,25.5,19.0,98,87,61,0.00,40.00,5,2,8,0.00
2013-11-21,32.0,28.3,26.0,31.0,27.8,26.0,98,97,96,0.00,40.00,14,4,29,0.00
2013-11-22,27.0,24.6,23.0,26.0,23.7,22.0,97,96,94,0.00,40.00,22,9,36,0.00
2013-11-27,36.0,31.5,25.0,17.0,9.5,-2.0,66,40,24,0.00,40.00,19,10,25,0.00
2013-11-28,38.0,28.7,24.0,21.0,14.8,8.0,78,56,39,0.00,40.00,10,5,16,0.00
2013-11-29,38.0,30.1,25.0,21.0,16.2,2.0,83,58,35,0.00,40.00,4,3,11,0.00
2013-11-30,41.0,30.0,25.0,21.0,10.0,-99.9,73,48,27,0.00,40.00,5,3,8,0.00
2013-12-1,45.0,36.2,30.0,15.0,8.9,1.0,44,32,23,0.00,40.00,18,9,23,0.00
2013-12-2,47.0,36.5,32.0,19.0,10.6,6.0,50,34,19,0.00,40.00,19,8,27,0.00
2013-12-3,32.0,25.8,16.0,23.0,18.0,13.0,96,73,44,0.00,40.00,9,5,19,0.00
2013-12-5,13.0,7.4,0.0,-1.0,-13.9,-32.0,55,38,17,0.00,40.00,6,3,12,0.00
2013-12-6,15.0,11.4,3.0,5.0,-2.9,-28.0,86,54,20,0.00,40.00,9,4,22,0.00
2013-12-7,14.0,8.2,4.0,11.0,0.7,-99.9,91,84,86,0.00,40.00,17,7,30,0.00
2013-12-8,15.0,2.0,-4.0,13.0,-3.8,-20.0,91,77,36,0.00,40.00,17,6,23,0.00
2013-12-9,22.0,11.6,-5.0,4.0,-5.1,-23.0,72,47,25,0.00,40.00,21,5,36,0.00
2013-12-10,32.0,26.8,22.0,5.0,-0.6,-6.0,40,29,23,0.00,40.00,23,10,27,0.00
2013-12-11,37.0,30.6,21.0,15.0,3.1,-3.0,41,30,23,0.00,40.00,5,2,7,0.00
2013-12-12,41.0,32.4,26.0,18.0,9.8,-18.0,58,41,11,0.00,40.00,9,4,16,0.00
2013-12-13,31.0,24.4,15.0,14.0,7.2,-4.0,82,49,26,0.00,40.00,20,8,34,0.00
2013-12-14,40.0,22.8,18.0,9.0,-5.9,-99.9,53,36,26,0.00,40.00,5,2,7,0.00
2013-12-15,48.0,38.0,29.0,19.0,11.0,3.0,53,33,21,0.00,40.00,14,3,18,0.00
2013-12-16,49.0,42.9,36.0,9.0,-0.3,-11.0,27,16,10,0.00,40.00,16,8,22,0.00
2013-12-17,51.0,41.7,37.0,13.0,1.4,-9.0,23,18,12,0.00,40.00,6,3,11,0.00
2013-12-18,45.0,40.0,33.0,28.0,4.3,-3.0,81,24,14,0.00,40.00,15,6,22,0.00
2013-12-19,30.0,23.3,20.0,20.0,18.1,17.0,93,80,60,0.00,40.00,8,4,16,0.00
2013-12-20,30.0,20.6,16.0,19.0,5.8,-17.0,95,57,18,0.00,40.00,12,5,17,0.00
2013-12-21,23.0,19.7,15.0,20.0,14.0,-99.9,94,86,71,0.00,40.00,18,9,31,0.00
2013-12-22,32.0,21.4,15.0,16.0,6.3,-8.0,86,55,26,0.00,40.00,22,10,33,0.00
2013-12-23,40.0,33.6,19.0,23.0,19.2,14.0,83,56,46,0.00,40.00,11,3,28,0.00
2013-12-24,36.0,31.8,26.0,22.0,13.5,-22.0,63,49,10,0.00,40.00,15,10,26,0.00
2013-12-25,39.0,29.6,26.0,-8.0,-14.6,-21.0,17,13,9,0.00,40.00,3,2,9,0.00
2013-12-26,46.0,35.8,28.0,6.0,-9.9,-21.0,37,14,8,0.00,40.00,4,2,10,0.00
2013-12-27,47.0,36.6,30.0,12.0,8.4,-1.0,40,30,22,0.00,40.00,4,2,10,0.00
2013-12-28,37.0,30.1,18.0,8.0,-0.2,-99.9,62,31,25,0.00,40.00,24,7,43,0.00
2013-12-29,33.0,24.4,13.0,2.0,-6.1,-11.0,58,27,14,0.00,40.00,13,4,20,0.00
2013-12-30,45.0,35.1,28.0,19.0,12.5,6.0,61,40,24,0.00,40.00,16,4,22,0.00
2013-12-31,43.0,37.5,32.0,17.0,14.6,11.0,47,39,32,0.00,40.00,14,7,18,0.00
2014-1-1,43.0,32.8,26.0,18.0,3.5,-27.0,66,36,6,0.00,40.00,19,6,25,0.00
2014-1-2,46.0,38.8,32.0,-4.0,-16.5,-31.0,13,8,4,0.00,40.00,7,3,8,0.00